[[{"header":{"parameterUnit":"m.s-1","parameterCategory":1,"la1":30.2991,"la2":30.254,"lo1":-89.0895,"lo2":-89.0444,"dy":0.0017,"dx":0.0017,"nx":28,"ny":28,"refTime":"2025-05-27T09:00:00:Z","depth":0,"parameterNumber":2,"parameterNumberName":"U-component_of_WINDS"},"data":[0,0,0,0,0,0,0,0,0,0,0,0,0,0,0,0,0,0,0,0,0,0,0,0,0,0,0,0,0,0,0,0,0,0,0,0,0,0,0,0,0,0,0,0,0,0,0,0,0,0,0,0,0,0,0,0,0,0,-0.2731,-0.273,0,-0.2628,-0.2627,-0.2626,-0.2648,-0.265,-0.2652,-0.2653,-0.254,-0.2535,-0.2531,0,0,0,0,0,0,0,0,0,0,0,0,0,-0.2936,-0.2933,-0.2731,-0.273,-0.2728,-0.2629,-0.2627,-0.2626,-0.2647,-0.265,-0.2652,-0.2654,-0.2542,-0.2536,-0.253,0,0,0,0,0,0,0,0,0,0,0,0,0,-0.2842,-0.2931,-0.2731,-0.2727,-0.2726,-0.2629,-0.2627,-0.2625,-0.2647,-0.265,-0.2653,-0.2655,-0.2544,-0.2537,-0.2529,-0.2427,0,0,-0.2507,-0.2504,0,0,0,0,0,0,0,0,-0.2847,-0.2834,-0.2729,-0.2727,-0.2726,-0.2654,-0.2658,-0.2559,-0.2646,-0.2677,-0.2653,-0.2657,-0.2575,-0.2565,-0.254,-0.2422,-0.2417,-0.2507,-0.2502,-0.2499,-0.2497,0,0,0,0,0,0,0,-0.2854,-0.2839,-0.269,-0.2728,-0.2725,-0.2728,-0.2718,-0.2639,-0.2611,-0.2674,-0.2676,-0.2664,-0.2575,-0.2547,-0.2537,-0.2416,-0.2507,-0.2501,-0.2496,-0.2493,-0.2207,-0.2204,0,0,0,0,0,0,-0.2863,-0.2844,-0.2693,-0.2687,-0.2795,-0.2722,-0.271,-0.2674,-0.2612,-0.2605,-0.2661,-0.2665,-0.2557,-0.2546,-0.2533,-0.2409,-0.2499,-0.2493,-0.2488,-0.221,-0.2206,-0.2203,0,0,0,0,0,0,-0.2867,-0.2849,-0.2698,-0.2766,-0.2747,-0.2715,-0.2674,-0.267,-0.2643,-0.2602,-0.2596,-0.2639,-0.2559,-0.2543,-0.2454,-0.2406,-0.2489,-0.2483,-0.2214,-0.2209,-0.2205,-0.2161,0,0,0,0,0,0,-0.2873,-0.2851,-0.2814,-0.2765,-0.2743,-0.2623,-0.2671,-0.2666,-0.2631,-0.2635,-0.2579,-0.2572,-0.256,-0.2464,-0.2447,-0.2397,-0.2477,-0.2218,-0.2212,-0.2206,-0.2167,-0.2155,-0.2146,0,0,0,0,0,-0.288,-0.2804,-0.2812,-0.2794,-0.2697,-0.262,-0.2607,-0.2597,-0.2627,-0.2588,-0.2562,-0.2574,-0.2414,-0.2455,-0.2435,-0.2383,-0.2221,-0.2214,-0.2207,-0.2172,-0.2158,-0.2146,0,0,0,0,0,0,-0.2846,-0.2798,-0.2806,-0.2712,-0.267,-0.2624,-0.2575,-0.2583,-0.2529,-0.2535,-0.2522,-0.2509,-0.2418,-0.2391,-0.2438,-0.228,-0.2321,-0.231,-0.2301,-0.2288,-0.2278,-0.2286,-0.2471,0,0,0,0,0,-0.2828,-0.2772,-0.2732,-0.2653,-0.2632,-0.2607,-0.2573,-0.2569,-0.2523,-0.2505,-0.2472,-0.2425,-0.2364,-0.2324,-0.2266,-0.2162,-0.215,-0.2116,-0.2106,-0.2097,-0.2088,-0.203,-0.2014,-0.2179,-0.2179,-0.2179,0,0,-0.2789,-0.2756,-0.2721,-0.2645,-0.2612,-0.2552,-0.2591,-0.2526,-0.2481,-0.2494,-0.2409,-0.2382,-0.2329,-0.2232,-0.2187,-0.2207,-0.2039,-0.2088,-0.2082,-0.2076,-0.202,-0.2005,-0.1991,-0.2174,-0.2175,-0.2175,0,0,-0.2689,-0.2658,-0.2589,-0.2555,-0.2506,-0.2489,-0.2473,-0.2424,-0.2408,-0.2323,-0.2331,-0.2275,-0.217,-0.2132,-0.2099,-0.1981,-0.199,-0.1962,-0.1907,-0.1851,-0.1838,-0.1827,-0.1784,-0.177,-0.1952,-0.1952,-0.1952,0,-0.2646,-0.2559,-0.2552,-0.2486,-0.2452,-0.2463,-0.2391,-0.2358,-0.229,-0.2264,-0.2288,-0.2156,-0.2121,-0.2015,-0.1987,-0.1959,-0.1938,-0.1969,-0.1841,-0.1829,-0.1818,-0.1778,-0.1762,-0.1949,-0.195,-0.195,-0.195,0,-0.2509,-0.2448,-0.2398,-0.2335,-0.2295,-0.2226,-0.2206,-0.2165,-0.2163,-0.2143,-0.2054,-0.2012,-0.1946,-0.192,-0.1917,-0.1812,-0.1826,-0.1845,-0.1886,-0.18,-0.1762,-0.1746,-0.1945,-0.1946,-0.1947,-0.1948,0,0,-0.2386,-0.232,-0.2302,-0.2273,-0.2218,-0.2169,-0.2099,-0.2036,-0.2001,-0.1953,-0.1893,-0.1804,-0.1821,-0.1783,-0.1775,-0.1726,-0.1635,-0.1751,-0.1749,-0.1731,-0.1516,-0.1503,-0.1485,-0.164,-0.1637,-0.1635,-0.1521,0,-0.2281,-0.2162,-0.2153,-0.2044,-0.1987,-0.1995,-0.1934,-0.1892,-0.1871,-0.1817,-0.1792,-0.1729,-0.1757,-0.1734,-0.1685,-0.1657,-0.1592,-0.1665,-0.1582,-0.158,-0.1597,-0.1466,-0.1451,-0.1346,-0.1506,-0.1503,-0.1501,0,-0.2143,-0.2094,-0.1981,-0.1933,-0.1908,-0.1854,-0.1795,-0.1744,-0.1695,-0.1682,-0.164,-0.1639,-0.1564,-0.1607,-0.1503,-0.1553,-0.1518,-0.1498,-0.1494,-0.1486,-0.1536,-0.1455,-0.1312,-0.1297,-0.1478,-0.148,-0.1481,0,-0.2065,-0.197,-0.189,-0.1865,-0.1807,-0.1768,-0.1742,-0.1696,-0.1658,-0.1605,-0.158,-0.1518,-0.1483,-0.1434,-0.1414,-0.1448,-0.1311,-0.1353,-0.1297,-0.1297,-0.1269,-0.1271,-0.1119,-0.1245,-0.1245,-0.1245,-0.1246,0,-0.195,-0.188,-0.1854,-0.1805,-0.1726,-0.1714,-0.1635,-0.161,-0.1569,-0.1512,-0.1514,-0.1461,-0.1438,-0.138,-0.1364,-0.128,-0.1264,-0.125,-0.1247,-0.1251,-0.1253,-0.1228,-0.1235,-0.1241,-0.1242,-0.1243,-0.1244,0,-0.185,-0.183,-0.1743,-0.1696,-0.1682,-0.1626,-0.1584,-0.1534,-0.1513,-0.1442,-0.1424,-0.1391,-0.1322,-0.1298,-0.1214,-0.1203,-0.1105,-0.1108,-0.1123,-0.1122,-0.1068,-0.1074,-0.0896,-0.0872,-0.1013,-0.1012,-0.1011,0,-0.1779,-0.1726,-0.1672,-0.1636,-0.1609,-0.155,-0.1512,-0.1496,-0.1456,-0.1395,-0.1353,-0.1286,-0.1231,-0.1121,-0.1087,-0.1023,-0.1024,-0.0966,-0.1014,-0.1019,-0.1023,-0.1027,-0.1021,-0.0957,-0.0956,-0.0954,-0.0953,0,-0.1653,-0.1646,-0.1593,-0.1535,-0.149,-0.1443,-0.1397,-0.1366,-0.1343,-0.1297,-0.1229,-0.1187,-0.1102,-0.1034,-0.0968,-0.0937,-0.094,-0.0938,-0.0922,-0.0926,-0.0937,-0.093,-0.1099,-0.0943,-0.0944,-0.0945,-0.0945,-0.0946,-0.1566,-0.1519,-0.1474,-0.1414,-0.1378,-0.1335,-0.1287,-0.126,-0.1203,-0.1135,-0.1128,-0.1054,-0.1003,-0.0915,-0.0881,-0.0821,-0.0837,-0.0813,-0.0807,-0.0802,-0.0798,-0.0946,-0.0809,-0.0809,-0.0809,-0.0809,-0.081,0,-0.1441,-0.1412,-0.1357,-0.1294,-0.1246,-0.1255,-0.1204,-0.1163,-0.1099,-0.1053,-0.0999,-0.092,-0.0854,-0.0814,-0.0747,-0.0706,-0.0706,-0.0689,-0.0692,-0.0685,-0.0788,-0.0809,-0.0691,-0.0691,-0.0691,-0.0691,-0.0691,-0.0691,-0.1371,-0.1292,-0.1278,-0.118,-0.1151,-0.1081,-0.1051,-0.101,-0.0973,-0.0885,-0.0831,-0.0807,-0.0762,-0.0692,-0.0631,-0.0621,-0.0596,-0.0578,-0.0569,-0.0666,-0.0678,-0.069,-0.0709,-0.0572,-0.0572,-0.0471,-0.047,-0.0469]},{"header":{"parameterUnit":"m.s-1","parameterCategory":1,"la1":30.2991,"la2":30.254,"lo1":-89.0895,"lo2":-89.0444,"dy":0.0017,"dx":0.0017,"nx":28,"ny":28,"refTime":"2025-05-27T09:00:00:Z","depth":0,"parameterNumber":3,"parameterNumberName":"V-component_of_WINDS"},"data":[0,0,0,0,0,0,0,0,0,0,0,0,0,0,0,0,0,0,0,0,0,0,0,0,0,0,0,0,0,0,0,0,0,0,0,0,0,0,0,0,0,0,0,0,0,0,0,0,0,0,0,0,0,0,0,0,0,0,1.3675,1.3675,0,1.3672,1.3672,1.3672,1.3617,1.3616,1.3614,1.3613,1.3608,1.3609,1.3611,0,0,0,0,0,0,0,0,0,0,0,0,0,1.3631,1.3632,1.3675,1.3675,1.3675,1.3672,1.3672,1.3672,1.3617,1.3616,1.3614,1.3612,1.3608,1.3609,1.3611,0,0,0,0,0,0,0,0,0,0,0,0,0,1.3642,1.3633,1.3675,1.3647,1.3645,1.3672,1.3672,1.3672,1.3618,1.3616,1.3613,1.3612,1.3607,1.3609,1.3611,1.3664,0,0,1.3616,1.3617,0,0,0,0,0,0,0,0,1.3641,1.3643,1.3651,1.3649,1.3646,1.3643,1.3655,1.3669,1.3618,1.3628,1.3613,1.361,1.3621,1.3622,1.3626,1.3664,1.3664,1.3616,1.3618,1.3618,1.3619,0,0,0,0,0,0,0,1.364,1.3643,1.3674,1.3651,1.3648,1.3635,1.3634,1.3657,1.3636,1.3627,1.3623,1.3623,1.362,1.3624,1.3625,1.3663,1.3616,1.3618,1.3619,1.362,1.3745,1.3747,0,0,0,0,0,0,1.3644,1.3643,1.3674,1.3674,1.3639,1.3637,1.3636,1.3646,1.3636,1.3632,1.3625,1.3621,1.3622,1.3623,1.3625,1.3686,1.3618,1.362,1.3621,1.3743,1.3746,1.3748,0,0,0,0,0,0,1.3643,1.3647,1.3674,1.3657,1.3659,1.364,1.3652,1.3647,1.3652,1.3635,1.3631,1.3634,1.3621,1.3622,1.3655,1.3685,1.3621,1.3622,1.374,1.3744,1.3747,1.3809,0,0,0,0,0,0,1.3642,1.3647,1.3667,1.3658,1.3661,1.3704,1.3654,1.3649,1.3655,1.3649,1.3642,1.3639,1.3619,1.3653,1.3657,1.3687,1.3624,1.3737,1.3742,1.3746,1.3804,1.3815,1.3823,0,0,0,0,0,1.3641,1.3684,1.3668,1.3672,1.3685,1.3706,1.3707,1.3685,1.3658,1.3678,1.3667,1.3639,1.3682,1.3656,1.366,1.3691,1.3735,1.374,1.3745,1.38,1.3813,1.3823,0,0,0,0,0,0,1.3696,1.3682,1.3665,1.3707,1.3708,1.3697,1.3721,1.3698,1.3707,1.3701,1.3672,1.3671,1.3708,1.3703,1.3675,1.3742,1.3704,1.371,1.3744,1.3755,1.3765,1.3764,1.3625,0,0,0,0,0,1.3714,1.3732,1.3719,1.3757,1.3759,1.374,1.3748,1.3731,1.3731,1.3731,1.3722,1.3723,1.3737,1.3746,1.3757,1.3804,1.3802,1.3828,1.3837,1.3845,1.385,1.3874,1.3886,1.3765,1.3765,1.3765,0,0,1.3749,1.3744,1.3757,1.3769,1.3767,1.3787,1.3741,1.3763,1.3777,1.3734,1.3764,1.3758,1.3757,1.3797,1.3814,1.3794,1.3883,1.3851,1.3858,1.3858,1.3881,1.3892,1.3902,1.3768,1.3768,1.3767,0,0,1.3823,1.3822,1.3854,1.3854,1.3854,1.3841,1.3849,1.3842,1.3837,1.3867,1.3835,1.3851,1.3875,1.3876,1.3879,1.3956,1.393,1.3961,1.4009,1.4033,1.4042,1.4051,1.4077,1.4088,1.3966,1.3966,1.3967,0,1.3867,1.3896,1.3873,1.3898,1.3903,1.3867,1.3899,1.39,1.3904,1.3908,1.3886,1.3916,1.3913,1.3952,1.3971,1.3976,1.3983,1.396,1.4043,1.4051,1.4058,1.4084,1.4094,1.397,1.397,1.3969,1.3969,0,1.3949,1.397,1.3996,1.4001,1.401,1.4038,1.4019,1.4031,1.4014,1.4004,1.4035,1.403,1.404,1.4049,1.4031,1.4086,1.4074,1.4048,1.4008,1.4074,1.4097,1.4107,1.3975,1.3974,1.3973,1.3972,0,0,1.4056,1.405,1.406,1.4062,1.406,1.4075,1.4102,1.4113,1.4124,1.4128,1.4149,1.4171,1.4148,1.4152,1.4135,1.4156,1.4217,1.4128,1.4127,1.4144,1.4277,1.4295,1.4307,1.4201,1.4203,1.4204,1.4277,0,1.4127,1.4173,1.4154,1.4202,1.422,1.4187,1.4211,1.4212,1.4204,1.4218,1.4209,1.4225,1.4193,1.4195,1.4215,1.4206,1.4243,1.42,1.422,1.4221,1.422,1.4319,1.4338,1.4407,1.4286,1.4287,1.4288,0,1.4215,1.4224,1.4274,1.427,1.4277,1.4299,1.4308,1.4322,1.4323,1.4316,1.4322,1.43,1.4326,1.4288,1.4323,1.4294,1.4302,1.4298,1.43,1.43,1.4257,1.432,1.4428,1.4438,1.4303,1.4301,1.43,0,1.4287,1.4312,1.4345,1.4348,1.4344,1.436,1.4359,1.4358,1.4367,1.4375,1.438,1.4391,1.4396,1.4405,1.4387,1.4361,1.4424,1.4385,1.4418,1.4419,1.4432,1.4431,1.4541,1.4439,1.4439,1.4438,1.4438,0,1.4367,1.4398,1.4377,1.4397,1.4432,1.4411,1.4445,1.444,1.4441,1.4459,1.4432,1.4449,1.4425,1.4441,1.4427,1.4458,1.4461,1.4455,1.4451,1.4457,1.4458,1.446,1.4454,1.4441,1.444,1.444,1.4439,0,1.4451,1.4438,1.4472,1.4467,1.4467,1.4492,1.4487,1.4506,1.4497,1.4521,1.4525,1.4511,1.4528,1.4512,1.4527,1.4518,1.4559,1.4549,1.4559,1.4556,1.459,1.4587,1.4704,1.4719,1.4609,1.461,1.4611,0,1.4502,1.4526,1.4524,1.4535,1.4537,1.4555,1.4564,1.4544,1.4554,1.4559,1.4577,1.4592,1.4602,1.4631,1.4622,1.4634,1.4623,1.4663,1.4624,1.463,1.4622,1.462,1.4623,1.467,1.4672,1.4673,1.4674,0,1.4594,1.4587,1.4602,1.4615,1.4626,1.4635,1.4641,1.4652,1.4632,1.4645,1.4663,1.4672,1.4689,1.4704,1.4714,1.4712,1.469,1.4687,1.4695,1.47,1.4705,1.4702,1.458,1.4683,1.4682,1.4682,1.4681,1.4681,1.4663,1.4682,1.4685,1.4702,1.4706,1.4713,1.473,1.4725,1.474,1.4753,1.4741,1.4762,1.4764,1.4775,1.4776,1.4792,1.4775,1.4787,1.479,1.4793,1.4798,1.4704,1.4794,1.4794,1.4794,1.4793,1.4793,0,1.4752,1.4753,1.4769,1.478,1.4794,1.4774,1.4781,1.4793,1.4813,1.4817,1.4829,1.485,1.4865,1.4858,1.4871,1.4886,1.4876,1.489,1.4888,1.4888,1.4813,1.4804,1.4898,1.4898,1.4898,1.4898,1.4898,1.4898,1.48,1.4833,1.4827,1.4861,1.4862,1.4884,1.4889,1.4896,1.4899,1.4924,1.4937,1.4933,1.4933,1.4946,1.4959,1.4957,1.4962,1.498,1.4974,1.4903,1.4893,1.4883,1.4875,1.4982,1.4982,1.5047,1.5048,1.5048]}]]